owner,sensor,date,latitude,longitude,vertical_datum,direction_of_sea_water_velocity,sea_water_speed,upward_sea_water_velocity,qcFlag 
COMPS,ioos:station:USF.COMPS:C10:1,2011-10-01T00:00:00Z,27.1690,-82.9260,4.0,161.56505117708,9.4868329805051,-99999.0,'1111122,1111122,1199999999' 
COMPS,ioos:station:USF.COMPS:C10:1,2011-10-01T01:00:00Z,27.1690,-82.9260,4.0,167.47119229085,9.2195444572929,-99999.0,'1111122,1111122,1199999999' 
COMPS,ioos:station:USF.COMPS:C10:1,2011-10-01T02:00:00Z,27.1690,-82.9260,4.0,160.0168934781,11.70469991072,-99999.0,'1111122,1111122,1199999999' 
COMPS,ioos:station:USF.COMPS:C10:1,2011-10-01T04:00:00Z,27.1690,-82.9260,4.0,156.80140948635,15.231546211728,-99999.0,'1111122,1111122,1199999999' 
COMPS,ioos:station:USF.COMPS:C10:1,2011-10-01T05:00:00Z,27.1690,-82.9260,4.0,169.38034472384,16.2788205961,-99999.0,'1111122,1111122,1199999999' 
COMPS,ioos:station:USF.COMPS:C10:1,2011-10-01T06:00:00Z,27.1690,-82.9260,4.0,176.82016988014,18.02775637732,-99999.0,'1111122,1111122,1199999999' 
COMPS,ioos:station:USF.COMPS:C10:1,2011-10-01T07:00:00Z,27.1690,-82.9260,4.0,180.0,20.0,-99999.0,'1111122,1111122,1199999999' 
COMPS,ioos:station:USF.COMPS:C10:1,2011-10-01T08:00:00Z,27.1690,-82.9260,4.0,191.88865803963,19.416487838948,-99999.0,'1111122,1111122,1199999999' 
COMPS,ioos:station:USF.COMPS:C10:1,2011-10-01T09:00:00Z,27.1690,-82.9260,4.0,190.78429786756,21.377558326432,-99999.0,'1111122,1111122,1199999999' 
COMPS,ioos:station:USF.COMPS:C10:1,2011-10-01T10:00:00Z,27.1690,-82.9260,4.0,192.52880770915,18.439088914586,-99999.0,'1111122,1111122,1199999999' 
COMPS,ioos:station:USF.COMPS:C10:1,2011-10-01T11:00:00Z,27.1690,-82.9260,4.0,173.65980825409,9.0553851381374,-99999.0,'1111122,1111122,1199999999' 
COMPS,ioos:station:USF.COMPS:C10:1,2011-10-01T12:00:00Z,27.1690,-82.9260,4.0,198.43494882292,12.649110640674,-99999.0,'1111122,1111122,1199999999' 
COMPS,ioos:station:USF.COMPS:C10:1,2011-10-01T13:00:00Z,27.1690,-82.9260,4.0,180.0,7.0,-99999.0,'1111122,1111122,1199999999' 
COMPS,ioos:station:USF.COMPS:C10:1,2011-10-01T14:00:00Z,27.1690,-82.9260,4.0,172.8749836511,8.0622577482985,-99999.0,'1111122,1111122,1199999999' 
COMPS,ioos:station:USF.COMPS:C10:1,2011-10-01T15:00:00Z,27.1690,-82.9260,4.0,144.46232220803,8.6023252670426,-99999.0,'1111122,1111122,1199999999' 
COMPS,ioos:station:USF.COMPS:C10:1,2011-10-01T16:00:00Z,27.1690,-82.9260,4.0,147.99461679192,9.4339811320566,-99999.0,'1111122,1111122,1199999999' 
COMPS,ioos:station:USF.COMPS:C10:1,2011-10-01T17:00:00Z,27.1690,-82.9260,4.0,151.38954033403,12.529964086142,-99999.0,'1111122,1111122,1199999999' 
COMPS,ioos:station:USF.COMPS:C10:1,2011-10-01T18:00:00Z,27.1690,-82.9260,4.0,150.94539590092,10.295630140987,-99999.0,'1111122,1111122,1199999999' 
COMPS,ioos:station:USF.COMPS:C10:1,2011-10-01T19:00:00Z,27.1690,-82.9260,4.0,162.89727103095,13.601470508735,-99999.0,'1111122,1111122,1199999999' 
COMPS,ioos:station:USF.COMPS:C10:1,2011-10-01T21:00:00Z,27.1690,-82.9260,4.0,168.69006752598,10.198039027186,-99999.0,'1111122,1111122,1199999999' 
COMPS,ioos:station:USF.COMPS:C10:1,2011-10-01T22:00:00Z,27.1690,-82.9260,4.0,170.53767779197,12.165525060596,-99999.0,'1111122,1111122,1199999999' 
COMPS,ioos:station:USF.COMPS:C10:1,2011-10-01T23:00:00Z,27.1690,-82.9260,4.0,145.00797980144,12.206555615734,-99999.0,'1111122,1111122,1199999999' 
COMPS,ioos:station:USF.COMPS:C10:1,2011-10-02T00:00:00Z,27.1690,-82.9260,4.0,172.8749836511,16.124515496597,-99999.0,'1111122,1111122,1199999999' 
COMPS,ioos:station:USF.COMPS:C10:1,2011-10-02T01:00:00Z,27.1690,-82.9260,4.0,161.56505117708,15.811388300842,-99999.0,'1111122,1111122,1199999999' 
COMPS,ioos:station:USF.COMPS:C10:1,2011-10-02T02:00:00Z,27.1690,-82.9260,4.0,169.99202019856,17.262676501632,-99999.0,'1111122,1111122,1199999999' 
COMPS,ioos:station:USF.COMPS:C10:1,2011-10-02T03:00:00Z,27.1690,-82.9260,4.0,161.56505117708,18.97366596101,-99999.0,'1111122,1111122,1199999999' 
COMPS,ioos:station:USF.COMPS:C10:1,2011-10-02T04:00:00Z,27.1690,-82.9260,4.0,147.26477372789,16.643316977093,-99999.0,'1111122,1111122,1199999999' 
COMPS,ioos:station:USF.COMPS:C10:1,2011-10-02T05:00:00Z,27.1690,-82.9260,4.0,166.75948008481,17.464249196573,-99999.0,'1111122,1111122,1199999999' 
COMPS,ioos:station:USF.COMPS:C10:1,2011-10-02T06:00:00Z,27.1690,-82.9260,4.0,158.62937773066,24.698178070457,-99999.0,'1111122,1111122,1199999999' 
COMPS,ioos:station:USF.COMPS:C10:1,2011-10-02T07:00:00Z,27.1690,-82.9260,4.0,164.93151184051,26.925824035673,-99999.0,'1111122,1111122,1199999999' 
COMPS,ioos:station:USF.COMPS:C10:1,2011-10-02T08:00:00Z,27.1690,-82.9260,4.0,180.0,20.0,-99999.0,'1111122,1111122,1199999999' 
COMPS,ioos:station:USF.COMPS:C10:1,2011-10-02T12:00:00Z,27.1690,-82.9260,4.0,161.56505117708,9.4868329805051,-99999.0,'1111122,1111122,1199999999' 
COMPS,ioos:station:USF.COMPS:C10:1,2011-10-03T13:00:00Z,27.1690,-82.9260,4.0,185.7105931375,10.049875621121,-99999.0,'1111122,1111122,1199999999' 
COMPS,ioos:station:USF.COMPS:C10:1,2011-10-03T14:00:00Z,27.1690,-82.9260,4.0,180.0,4.0,-99999.0,'1111122,1111122,1199999999' 
COMPS,ioos:station:USF.COMPS:C10:1,2011-10-03T15:00:00Z,27.1690,-82.9260,4.0,180.0,4.0,-99999.0,'1111122,1111122,1199999999' 
COMPS,ioos:station:USF.COMPS:C10:1,2011-10-03T16:00:00Z,27.1690,-82.9260,4.0,180.0,5.0,-99999.0,'1111122,1111122,1199999999' 
COMPS,ioos:station:USF.COMPS:C10:1,2011-10-03T17:00:00Z,27.1690,-82.9260,4.0,171.86989764584,7.0710678118655,-99999.0,'1111122,1111122,1199999999' 
COMPS,ioos:station:USF.COMPS:C10:1,2011-10-03T18:00:00Z,27.1690,-82.9260,4.0,180.0,8.0,-99999.0,'1111122,1111122,1199999999' 
COMPS,ioos:station:USF.COMPS:C10:1,2011-10-03T19:00:00Z,27.1690,-82.9260,4.0,161.56505117708,9.4868329805051,-99999.0,'1111122,1111122,1199999999' 
COMPS,ioos:station:USF.COMPS:C10:1,2011-10-03T20:00:00Z,27.1690,-82.9260,4.0,160.0168934781,11.70469991072,-99999.0,'1111122,1111122,1199999999' 
COMPS,ioos:station:USF.COMPS:C10:1,2011-10-03T22:00:00Z,27.1690,-82.9260,4.0,180.0,10.0,-99999.0,'1111122,1111122,1199999999' 
COMPS,ioos:station:USF.COMPS:C10:1,2011-10-03T23:00:00Z,27.1690,-82.9260,4.0,167.47119229085,9.2195444572929,-99999.0,'1111122,1111122,1199999999' 
COMPS,ioos:station:USF.COMPS:C10:1,2011-10-04T00:00:00Z,27.1690,-82.9260,4.0,167.47119229085,9.2195444572929,-99999.0,'1111122,1111122,1199999999' 
COMPS,ioos:station:USF.COMPS:C10:1,2011-10-04T01:00:00Z,27.1690,-82.9260,4.0,167.47119229085,9.2195444572929,-99999.0,'1111122,1111122,1199999999' 
COMPS,ioos:station:USF.COMPS:C10:1,2011-10-04T02:00:00Z,27.1690,-82.9260,4.0,180.0,9.0,-99999.0,'1111122,1111122,1199999999' 
COMPS,ioos:station:USF.COMPS:C10:1,2011-10-04T03:00:00Z,27.1690,-82.9260,4.0,168.69006752598,5.0990195135928,-99999.0,'1111122,1111122,1199999999' 
COMPS,ioos:station:USF.COMPS:C10:1,2011-10-04T04:00:00Z,27.1690,-82.9260,4.0,180.0,6.0,-99999.0,'1111122,1111122,1199999999' 
COMPS,ioos:station:USF.COMPS:C10:1,2011-10-04T05:00:00Z,27.1690,-82.9260,4.0,180.0,8.0,-99999.0,'1111122,1111122,1199999999' 
COMPS,ioos:station:USF.COMPS:C10:1,2011-10-04T13:00:00Z,27.1690,-82.9260,4.0,212.00538320808,9.4339811320566,-99999.0,'1111122,1111122,1199999999' 
COMPS,ioos:station:USF.COMPS:C10:1,2011-10-04T14:00:00Z,27.1690,-82.9260,4.0,236.30993247402,3.605551275464,-99999.0,'1111122,1111122,1199999999' 
COMPS,ioos:station:USF.COMPS:C10:1,2011-10-04T15:00:00Z,27.1690,-82.9260,4.0,210.96375653207,5.8309518948453,-99999.0,'1111122,1111122,1199999999' 
COMPS,ioos:station:USF.COMPS:C10:1,2011-10-04T16:00:00Z,27.1690,-82.9260,4.0,191.30993247402,5.0990195135928,-99999.0,'1111122,1111122,1199999999' 
COMPS,ioos:station:USF.COMPS:C10:1,2011-10-04T18:00:00Z,27.1690,-82.9260,4.0,206.56505117708,2.2360679774998,-99999.0,'1111122,1111122,1199999999' 
COMPS,ioos:station:USF.COMPS:C10:1,2011-10-04T19:00:00Z,27.1690,-82.9260,4.0,213.69006752598,3.605551275464,-99999.0,'1111122,1111122,1199999999' 
COMPS,ioos:station:USF.COMPS:C10:1,2011-10-04T20:00:00Z,27.1690,-82.9260,4.0,213.69006752598,3.605551275464,-99999.0,'1111122,1111122,1199999999' 
COMPS,ioos:station:USF.COMPS:C10:1,2011-10-04T21:00:00Z,27.1690,-82.9260,4.0,198.43494882292,3.1622776601684,-99999.0,'1111122,1111122,1199999999' 
COMPS,ioos:station:USF.COMPS:C10:1,2011-10-04T22:00:00Z,27.1690,-82.9260,4.0,165.96375653207,4.1231056256177,-99999.0,'1111122,1111122,1199999999' 
COMPS,ioos:station:USF.COMPS:C10:1,2011-10-04T23:00:00Z,27.1690,-82.9260,4.0,123.69006752598,3.605551275464,-99999.0,'1111122,1111122,1199999999' 
COMPS,ioos:station:USF.COMPS:C10:1,2011-10-05T00:00:00Z,27.1690,-82.9260,4.0,173.65980825409,9.0553851381374,-99999.0,'1111122,1111122,1199999999' 
COMPS,ioos:station:USF.COMPS:C10:1,2011-10-05T01:00:00Z,27.1690,-82.9260,4.0,180.0,7.0,-99999.0,'1111122,1111122,1199999999' 
COMPS,ioos:station:USF.COMPS:C10:1,2011-10-05T02:00:00Z,27.1690,-82.9260,4.0,180.0,5.0,-99999.0,'1111122,1111122,1199999999' 
COMPS,ioos:station:USF.COMPS:C10:1,2011-10-05T03:00:00Z,27.1690,-82.9260,4.0,170.53767779197,6.0827625302982,-99999.0,'1111122,1111122,1199999999' 
COMPS,ioos:station:USF.COMPS:C10:1,2011-10-05T10:00:00Z,27.1690,-82.9260,4.0,33.69006752598,28.844410203712,-99999.0,'1111122,1111122,1199999999' 
COMPS,ioos:station:USF.COMPS:C10:1,2011-10-05T13:00:00Z,27.1690,-82.9260,4.0,198.43494882292,6.3245553203368,-99999.0,'1111122,1111122,1199999999' 
COMPS,ioos:station:USF.COMPS:C10:1,2011-10-05T14:00:00Z,27.1690,-82.9260,4.0,206.56505117708,2.2360679774998,-99999.0,'1111122,1111122,1199999999' 
COMPS,ioos:station:USF.COMPS:C10:1,2011-10-05T15:00:00Z,27.1690,-82.9260,4.0,198.43494882292,6.3245553203368,-99999.0,'1111122,1111122,1199999999' 
COMPS,ioos:station:USF.COMPS:C10:1,2011-10-05T16:00:00Z,27.1690,-82.9260,4.0,243.43494882292,2.2360679774998,-99999.0,'1111122,1111122,1199999999' 
COMPS,ioos:station:USF.COMPS:C10:1,2011-10-05T17:00:00Z,27.1690,-82.9260,4.0,233.13010235416,5.0,-99999.0,'1111122,1111122,1199999999' 
COMPS,ioos:station:USF.COMPS:C10:1,2011-10-05T18:00:00Z,27.1690,-82.9260,4.0,225.0,4.2426406871193,-99999.0,'1111122,1111122,1199999999' 
COMPS,ioos:station:USF.COMPS:C10:1,2011-10-05T19:00:00Z,27.1690,-82.9260,4.0,251.56505117708,3.1622776601684,-99999.0,'1111122,1111122,1199999999' 
COMPS,ioos:station:USF.COMPS:C10:1,2011-10-05T20:00:00Z,27.1690,-82.9260,4.0,225.0,4.2426406871193,-99999.0,'1111122,1111122,1199999999' 
COMPS,ioos:station:USF.COMPS:C10:1,2011-10-05T21:00:00Z,27.1690,-82.9260,4.0,0.0,1.0,-99999.0,'1113322,1114422,1199999999' 
COMPS,ioos:station:USF.COMPS:C10:1,2011-10-05T22:00:00Z,27.1690,-82.9260,4.0,180.0,1.0,-99999.0,'1113322,1111122,1199999999' 
COMPS,ioos:station:USF.COMPS:C10:1,2011-10-05T23:00:00Z,27.1690,-82.9260,4.0,90.0,4.0,-99999.0,'1111122,1111122,1199999999' 
COMPS,ioos:station:USF.COMPS:C10:1,2011-10-06T00:00:00Z,27.1690,-82.9260,4.0,180.0,4.0,-99999.0,'1111122,1111122,1199999999' 
COMPS,ioos:station:USF.COMPS:C10:1,2011-10-06T01:00:00Z,27.1690,-82.9260,4.0,180.0,2.0,-99999.0,'1111122,1111122,1199999999' 
COMPS,ioos:station:USF.COMPS:C10:1,2011-10-06T05:00:00Z,27.1690,-82.9260,4.0,34.824489156957,28.017851452244,-99999.0,'1111122,1111122,1199999999' 
COMPS,ioos:station:USF.COMPS:C10:1,2011-10-06T06:00:00Z,27.1690,-82.9260,4.0,34.824489156957,28.017851452244,-99999.0,'1111122,1111122,1199999999' 
COMPS,ioos:station:USF.COMPS:C10:1,2011-10-06T07:00:00Z,27.1690,-82.9260,4.0,34.824489156957,28.017851452244,-99999.0,'1111122,1111122,1199999999' 
COMPS,ioos:station:USF.COMPS:C10:1,2011-10-06T08:00:00Z,27.1690,-82.9260,4.0,34.824489156957,28.017851452244,-99999.0,'1111122,1111122,1199999999' 
COMPS,ioos:station:USF.COMPS:C10:1,2011-10-06T09:00:00Z,27.1690,-82.9260,4.0,34.824489156957,28.017851452244,-99999.0,'1111122,1111122,1199999999' 
COMPS,ioos:station:USF.COMPS:C10:1,2011-10-06T10:00:00Z,27.1690,-82.9260,4.0,45.0,22.62741699797,-99999.0,'1111122,1111122,1199999999' 
COMPS,ioos:station:USF.COMPS:C10:1,2011-10-06T11:00:00Z,27.1690,-82.9260,4.0,33.69006752598,28.844410203712,-99999.0,'1111122,1111122,1199999999' 
COMPS,ioos:station:USF.COMPS:C10:1,2011-10-06T13:00:00Z,27.1690,-82.9260,4.0,167.47119229085,9.2195444572929,-99999.0,'1111122,1111122,1199999999' 
COMPS,ioos:station:USF.COMPS:C10:1,2011-10-06T14:00:00Z,27.1690,-82.9260,4.0,180.0,7.0,-99999.0,'1111122,1111122,1199999999' 
COMPS,ioos:station:USF.COMPS:C10:1,2011-10-06T15:00:00Z,27.1690,-82.9260,4.0,192.52880770915,9.2195444572929,-99999.0,'1111122,1111122,1199999999' 
COMPS,ioos:station:USF.COMPS:C10:1,2011-10-06T16:00:00Z,27.1690,-82.9260,4.0,216.86989764584,10.0,-99999.0,'1111122,1111122,1199999999' 
COMPS,ioos:station:USF.COMPS:C10:1,2011-10-06T17:00:00Z,27.1690,-82.9260,4.0,206.56505117708,11.180339887499,-99999.0,'1111122,1111122,1199999999' 
COMPS,ioos:station:USF.COMPS:C10:1,2011-10-06T18:00:00Z,27.1690,-82.9260,4.0,215.53767779197,8.6023252670426,-99999.0,'1111122,1111122,1199999999' 
COMPS,ioos:station:USF.COMPS:C10:1,2011-10-06T19:00:00Z,27.1690,-82.9260,4.0,209.74488129694,8.0622577482985,-99999.0,'1111122,1111122,1199999999' 
COMPS,ioos:station:USF.COMPS:C10:1,2011-10-06T20:00:00Z,27.1690,-82.9260,4.0,225.0,5.6568542494924,-99999.0,'1111122,1111122,1199999999' 
COMPS,ioos:station:USF.COMPS:C10:1,2011-10-06T21:00:00Z,27.1690,-82.9260,4.0,206.56505117708,4.4721359549996,-99999.0,'1111122,1111122,1199999999' 
COMPS,ioos:station:USF.COMPS:C10:1,2011-10-06T22:00:00Z,27.1690,-82.9260,4.0,189.46232220803,6.0827625302982,-99999.0,'1111122,1111122,1199999999' 
COMPS,ioos:station:USF.COMPS:C10:1,2011-10-06T23:00:00Z,27.1690,-82.9260,4.0,180.0,8.0,-99999.0,'1111122,1111122,1199999999' 
COMPS,ioos:station:USF.COMPS:C10:1,2011-10-07T00:00:00Z,27.1690,-82.9260,4.0,194.03624346793,8.2462112512353,-99999.0,'1111122,1111122,1199999999' 
COMPS,ioos:station:USF.COMPS:C10:1,2011-10-07T01:00:00Z,27.1690,-82.9260,4.0,206.56505117708,6.7082039324994,-99999.0,'1111122,1111122,1199999999' 
COMPS,ioos:station:USF.COMPS:C10:1,2011-10-07T05:00:00Z,27.1690,-82.9260,4.0,33.69006752598,28.844410203712,-99999.0,'1111122,1111122,1199999999' 
COMPS,ioos:station:USF.COMPS:C10:1,2011-10-07T06:00:00Z,27.1690,-82.9260,4.0,34.824489156957,28.017851452244,-99999.0,'1111122,1111122,1199999999' 
COMPS,ioos:station:USF.COMPS:C10:1,2011-10-07T07:00:00Z,27.1690,-82.9260,4.0,34.824489156957,28.017851452244,-99999.0,'1111122,1111122,1199999999' 
COMPS,ioos:station:USF.COMPS:C10:1,2011-10-07T08:00:00Z,27.1690,-82.9260,4.0,0.0,0.0,-99999.0,'1114422,1114422,1199999999' 
COMPS,ioos:station:USF.COMPS:C10:1,2011-10-07T09:00:00Z,27.1690,-82.9260,4.0,0.0,0.0,-99999.0,'1114422,1114422,1199999999' 
COMPS,ioos:station:USF.COMPS:C10:1,2011-10-07T10:00:00Z,27.1690,-82.9260,4.0,0.0,0.0,-99999.0,'1114422,1114422,1199999999' 
COMPS,ioos:station:USF.COMPS:C10:1,2011-10-07T11:00:00Z,27.1690,-82.9260,4.0,33.69006752598,28.844410203712,-99999.0,'1111122,1111122,1199999999' 
COMPS,ioos:station:USF.COMPS:C10:1,2011-10-07T13:00:00Z,27.1690,-82.9260,4.0,212.00538320808,9.4339811320566,-99999.0,'1111122,1111122,1199999999' 
COMPS,ioos:station:USF.COMPS:C10:1,2011-10-07T14:00:00Z,27.1690,-82.9260,4.0,206.56505117708,4.4721359549996,-99999.0,'1111122,1111122,1199999999' 
COMPS,ioos:station:USF.COMPS:C10:1,2011-10-07T15:00:00Z,27.1690,-82.9260,4.0,218.65980825409,6.4031242374328,-99999.0,'1111122,1111122,1199999999' 
COMPS,ioos:station:USF.COMPS:C10:1,2011-10-07T16:00:00Z,27.1690,-82.9260,4.0,200.55604521958,8.5440037453175,-99999.0,'1111122,1111122,1199999999' 
COMPS,ioos:station:USF.COMPS:C10:1,2011-10-07T17:00:00Z,27.1690,-82.9260,4.0,229.398705355,9.2195444572929,-99999.0,'1111122,1111122,1199999999' 
COMPS,ioos:station:USF.COMPS:C10:1,2011-10-07T18:00:00Z,27.1690,-82.9260,4.0,240.25511870306,8.0622577482985,-99999.0,'1111122,1111122,1199999999' 
COMPS,ioos:station:USF.COMPS:C10:1,2011-10-07T19:00:00Z,27.1690,-82.9260,4.0,248.19859051365,5.3851648071345,-99999.0,'1111122,1111122,1199999999' 
COMPS,ioos:station:USF.COMPS:C10:1,2011-10-07T20:00:00Z,27.1690,-82.9260,4.0,239.03624346793,5.8309518948453,-99999.0,'1111122,1111122,1199999999' 
COMPS,ioos:station:USF.COMPS:C10:1,2011-10-07T21:00:00Z,27.1690,-82.9260,4.0,236.30993247402,3.605551275464,-99999.0,'1111122,1111122,1199999999' 
COMPS,ioos:station:USF.COMPS:C10:1,2011-10-07T22:00:00Z,27.1690,-82.9260,4.0,218.65980825409,6.4031242374328,-99999.0,'1111122,1111122,1199999999' 
COMPS,ioos:station:USF.COMPS:C10:1,2011-10-07T23:00:00Z,27.1690,-82.9260,4.0,231.34019174591,6.4031242374328,-99999.0,'1111122,1111122,1199999999' 
COMPS,ioos:station:USF.COMPS:C10:1,2011-10-08T00:00:00Z,27.1690,-82.9260,4.0,201.80140948635,5.3851648071345,-99999.0,'1111122,1111122,1199999999' 
COMPS,ioos:station:USF.COMPS:C10:1,2011-10-08T01:00:00Z,27.1690,-82.9260,4.0,206.56505117708,2.2360679774998,-99999.0,'1111122,1111122,1199999999' 
COMPS,ioos:station:USF.COMPS:C10:1,2011-10-08T02:00:00Z,27.1690,-82.9260,4.0,190.30484646877,11.180339887499,-99999.0,'1111122,1111122,1199999999' 
COMPS,ioos:station:USF.COMPS:C10:1,2011-10-08T05:00:00Z,27.1690,-82.9260,4.0,34.824489156957,28.017851452244,-99999.0,'1111122,1111122,1199999999' 
COMPS,ioos:station:USF.COMPS:C10:1,2011-10-08T06:00:00Z,27.1690,-82.9260,4.0,34.824489156957,28.017851452244,-99999.0,'1111122,1111122,1199999999' 
COMPS,ioos:station:USF.COMPS:C10:1,2011-10-08T07:00:00Z,27.1690,-82.9260,4.0,36.027373385104,27.202941017471,-99999.0,'1111122,1111122,1199999999' 
COMPS,ioos:station:USF.COMPS:C10:1,2011-10-08T08:00:00Z,27.1690,-82.9260,4.0,0.0,0.0,-99999.0,'1114422,1114422,1199999999' 
COMPS,ioos:station:USF.COMPS:C10:1,2011-10-08T09:00:00Z,27.1690,-82.9260,4.0,0.0,0.0,-99999.0,'1114422,1114422,1199999999' 
COMPS,ioos:station:USF.COMPS:C10:1,2011-10-08T10:00:00Z,27.1690,-82.9260,4.0,0.0,0.0,-99999.0,'1114422,1114422,1199999999' 
COMPS,ioos:station:USF.COMPS:C10:1,2011-10-08T11:00:00Z,27.1690,-82.9260,4.0,45.0,1.4142135623731,-99999.0,'1111122,1111122,1199999999' 
COMPS,ioos:station:USF.COMPS:C10:1,2011-10-08T12:00:00Z,27.1690,-82.9260,4.0,86.423665625003,16.031219541881,-99999.0,'1111122,1111122,1199999999' 
COMPS,ioos:station:USF.COMPS:C10:1,2011-10-08T14:00:00Z,27.1690,-82.9260,4.0,180.0,8.0,-99999.0,'1111122,1111122,1199999999' 
COMPS,ioos:station:USF.COMPS:C10:1,2011-10-08T15:00:00Z,27.1690,-82.9260,4.0,231.34019174591,6.4031242374328,-99999.0,'1111122,1111122,1199999999' 
COMPS,ioos:station:USF.COMPS:C10:1,2011-10-08T16:00:00Z,27.1690,-82.9260,4.0,218.65980825409,6.4031242374328,-99999.0,'1111122,1111122,1199999999' 
COMPS,ioos:station:USF.COMPS:C10:1,2011-10-08T17:00:00Z,27.1690,-82.9260,4.0,180.0,4.0,-99999.0,'1111122,1111122,1199999999' 
COMPS,ioos:station:USF.COMPS:C10:1,2011-10-08T18:00:00Z,27.1690,-82.9260,4.0,243.43494882292,8.9442719099992,-99999.0,'1111122,1111122,1199999999' 
COMPS,ioos:station:USF.COMPS:C10:1,2011-10-08T19:00:00Z,27.1690,-82.9260,4.0,257.47119229085,9.2195444572929,-99999.0,'1111122,1111122,1199999999' 
COMPS,ioos:station:USF.COMPS:C10:1,2011-10-08T20:00:00Z,27.1690,-82.9260,4.0,270.0,7.0,-99999.0,'1111122,1111122,1199999999' 
COMPS,ioos:station:USF.COMPS:C10:1,2011-10-08T21:00:00Z,27.1690,-82.9260,4.0,229.398705355,9.2195444572929,-99999.0,'1111122,1111122,1199999999' 
COMPS,ioos:station:USF.COMPS:C10:1,2011-10-08T22:00:00Z,27.1690,-82.9260,4.0,225.0,9.8994949366117,-99999.0,'1111122,1111122,1199999999' 
COMPS,ioos:station:USF.COMPS:C10:1,2011-10-08T23:00:00Z,27.1690,-82.9260,4.0,247.38013505196,13.0,-99999.0,'1111122,1111122,1199999999' 
COMPS,ioos:station:USF.COMPS:C10:1,2011-10-09T00:00:00Z,27.1690,-82.9260,4.0,206.56505117708,15.652475842499,-99999.0,'1111122,1111122,1199999999' 
COMPS,ioos:station:USF.COMPS:C10:1,2011-10-09T01:00:00Z,27.1690,-82.9260,4.0,217.56859202883,16.401219466857,-99999.0,'1111122,1111122,1199999999' 
COMPS,ioos:station:USF.COMPS:C10:1,2011-10-09T05:00:00Z,27.1690,-82.9260,4.0,40.100907546212,24.839484696748,-99999.0,'1111122,1111122,1199999999' 
COMPS,ioos:station:USF.COMPS:C10:1,2011-10-09T06:00:00Z,27.1690,-82.9260,4.0,41.63353933657,24.083189157585,-99999.0,'1111122,1111122,1199999999' 
COMPS,ioos:station:USF.COMPS:C10:1,2011-10-09T07:00:00Z,27.1690,-82.9260,4.0,0.0,0.0,-99999.0,'1114422,1114422,1199999999' 
COMPS,ioos:station:USF.COMPS:C10:1,2011-10-09T08:00:00Z,27.1690,-82.9260,4.0,0.0,0.0,-99999.0,'1114422,1114422,1199999999' 
COMPS,ioos:station:USF.COMPS:C10:1,2011-10-09T09:00:00Z,27.1690,-82.9260,4.0,0.0,0.0,-99999.0,'1114422,1114422,1199999999' 
COMPS,ioos:station:USF.COMPS:C10:1,2011-10-09T10:00:00Z,27.1690,-82.9260,4.0,0.0,0.0,-99999.0,'1114422,1114422,1199999999' 
COMPS,ioos:station:USF.COMPS:C10:1,2011-10-09T13:00:00Z,27.1690,-82.9260,4.0,299.74488129694,8.0622577482985,-99999.0,'1111122,1111122,1199999999' 
COMPS,ioos:station:USF.COMPS:C10:1,2011-10-09T14:00:00Z,27.1690,-82.9260,4.0,236.30993247402,3.605551275464,-99999.0,'1111122,1111122,1199999999' 
COMPS,ioos:station:USF.COMPS:C10:1,2011-10-09T15:00:00Z,27.1690,-82.9260,4.0,293.19859051365,7.6157731058639,-99999.0,'1111122,1111122,1199999999' 
COMPS,ioos:station:USF.COMPS:C10:1,2011-10-09T16:00:00Z,27.1690,-82.9260,4.0,264.2894068625,10.049875621121,-99999.0,'1111122,1111122,1199999999' 
COMPS,ioos:station:USF.COMPS:C10:1,2011-10-09T17:00:00Z,27.1690,-82.9260,4.0,278.13010235416,14.142135623731,-99999.0,'1111122,1111122,1199999999' 
COMPS,ioos:station:USF.COMPS:C10:1,2011-10-09T18:00:00Z,27.1690,-82.9260,4.0,285.94539590092,14.560219778561,-99999.0,'1111122,1111122,1199999999' 
COMPS,ioos:station:USF.COMPS:C10:1,2011-10-09T19:00:00Z,27.1690,-82.9260,4.0,293.96248897458,9.8488578017961,-99999.0,'1111122,1111122,1199999999' 
COMPS,ioos:station:USF.COMPS:C10:1,2011-10-09T20:00:00Z,27.1690,-82.9260,4.0,281.30993247402,5.0990195135928,-99999.0,'1111122,1111122,1199999999' 
COMPS,ioos:station:USF.COMPS:C10:1,2011-10-09T21:00:00Z,27.1690,-82.9260,4.0,275.7105931375,10.049875621121,-99999.0,'1111122,1111122,1199999999' 
COMPS,ioos:station:USF.COMPS:C10:1,2011-10-09T22:00:00Z,27.1690,-82.9260,4.0,326.30993247402,10.816653826392,-99999.0,'1111122,1111122,1199999999' 
COMPS,ioos:station:USF.COMPS:C10:1,2011-10-09T23:00:00Z,27.1690,-82.9260,4.0,308.65980825409,6.4031242374328,-99999.0,'1111122,1111122,1199999999' 
COMPS,ioos:station:USF.COMPS:C10:1,2011-10-10T00:00:00Z,27.1690,-82.9260,4.0,315.0,1.4142135623731,-99999.0,'1111122,1111122,1199999999' 
COMPS,ioos:station:USF.COMPS:C10:1,2011-10-10T01:00:00Z,27.1690,-82.9260,4.0,0.0,6.0,-99999.0,'1111122,1114422,1199999999' 
COMPS,ioos:station:USF.COMPS:C10:1,2011-10-10T02:00:00Z,27.1690,-82.9260,4.0,116.56505117708,2.2360679774998,-99999.0,'1111122,1111122,1199999999' 
COMPS,ioos:station:USF.COMPS:C10:1,2011-10-10T03:00:00Z,27.1690,-82.9260,4.0,90.0,2.0,-99999.0,'1111122,1111122,1199999999' 
COMPS,ioos:station:USF.COMPS:C10:1,2011-10-10T04:00:00Z,27.1690,-82.9260,4.0,270.0,3.0,-99999.0,'1111122,1111122,1199999999' 
COMPS,ioos:station:USF.COMPS:C10:1,2011-10-10T05:00:00Z,27.1690,-82.9260,4.0,288.43494882292,3.1622776601684,-99999.0,'1111122,1111122,1199999999' 
COMPS,ioos:station:USF.COMPS:C10:1,2011-10-10T06:00:00Z,27.1690,-82.9260,4.0,270.0,6.0,-99999.0,'1111122,1111122,1199999999' 
COMPS,ioos:station:USF.COMPS:C10:1,2011-10-10T07:00:00Z,27.1690,-82.9260,4.0,258.69006752598,5.0990195135928,-99999.0,'1111122,1111122,1199999999' 
COMPS,ioos:station:USF.COMPS:C10:1,2011-10-10T08:00:00Z,27.1690,-82.9260,4.0,279.46232220803,6.0827625302982,-99999.0,'1111122,1111122,1199999999' 
COMPS,ioos:station:USF.COMPS:C10:1,2011-10-10T09:00:00Z,27.1690,-82.9260,4.0,329.03624346793,5.8309518948453,-99999.0,'1111122,1111122,1199999999' 
COMPS,ioos:station:USF.COMPS:C10:1,2011-10-10T12:00:00Z,27.1690,-82.9260,4.0,38.65980825409,6.4031242374328,-99999.0,'1111122,1111122,1199999999' 
COMPS,ioos:station:USF.COMPS:C10:1,2011-10-10T13:00:00Z,27.1690,-82.9260,4.0,54.462322208026,8.6023252670426,-99999.0,'1111122,1111122,1199999999' 
COMPS,ioos:station:USF.COMPS:C10:1,2011-10-10T14:00:00Z,27.1690,-82.9260,4.0,81.869897645844,7.0710678118655,-99999.0,'1111122,1111122,1199999999' 